Fes-Sais, Morocco

1:07 PM WEST on August 27, 2016 (GMT +0100)
Saiss

Weather History for GMFF - April, 2014

Change the Weather History Date:

Sunday, April 27, 2014

  Actual Average Record
Temperature  
Mean Temperature 62 °F -  
Max Temperature 79 °F 75 °F 87 °F (2008)
Min Temperature 44 °F 50 °F 44 °F (2014)
Degree Days  
Heating Degree Days 4    
Growing Degree Days 12 (Base 50)    
Moisture  
Dew Point 48 °F    
Average Humidity 51    
Maximum Humidity 76    
Minimum Humidity 25    
Precipitation  
Precipitation 0.00 in 0.07 in - ()
Sea Level Pressure  
Sea Level Pressure 30.10 in    
Wind  
Wind Speed 4 mph ()    
Max Wind Speed 10 mph    
Max Gust Speed -    
Visibility 7.9 miles    
Events      
Averages and records for this station are not official NWS values.
T = Trace of Precipitation, MM = Missing Value Source: Averaged Metar Reports

Daily Weather History Graph

Daily Weather History Graph

Search for Another Location

Airport or City:

Trip Planner

Search our weather history database for the weather conditions in past years. The results will help you decide how hot, cold, wet, or windy it might be!

Date:

Astronomy

Apr. 27, 2014 Rise Set
Actual Time 6:35 AM WEST 8:00 PM WEST
Civil Twilight 6:08 AM WEST 8:26 PM WEST
Nautical Twilight 5:37 AM WEST 8:58 PM WEST
Astronomical Twilight 5:04 AM WEST 9:31 PM WEST
Moon 5:21 AM WEST 6:23 PM WEST
Length of Visible Light 14h 17m
Length of Day
13h 25m
Waning Crescent, 4% of the Moon is Illuminated
Apr 27
Waning Crescent
Apr 29
New
May 7
First Quarter
May 14
Full
May 21
Last Quarter

Hourly Weather History & Observations

Time (WEST) Temp. Dew Point Humidity Pressure Visibility Wind Dir Wind Speed Gust Speed Precip Events Conditions
1:00 AM 55 °F 46 °F 63% 30.16 in 6 mi WSW 2.3 mph - -  
1:00 AM 55.4 °F 46.4 °F 72% 30.15 in - WSW 3.5 mph - N/A   Clear
4:00 AM 52 °F 45 °F 68% 30.15 in 6 mi SSW 3.5 mph - -  
4:00 AM 51.8 °F 44.6 °F 76% 30.12 in - SSW 2.3 mph - N/A   Clear
7:00 AM 46 °F 39 °F 70% 30.16 in 6 mi SSE 3.5 mph - -  
7:00 AM 46.4 °F 39.2 °F 76% 30.12 in - SSE 2.3 mph - N/A   Clear
10:00 AM 64 °F 47 °F 43% 30.11 in 6 mi West 4.6 mph - -  
10:00 AM 64.4 °F 46.4 °F 52% 30.15 in - West 4.6 mph - N/A   Clear
1:00 PM 73 °F 45 °F 25% 30.05 in 6 mi NW 4.6 mph - -  
1:00 PM 73.4 °F 44.6 °F 36% 30.12 in - NW 4.6 mph - N/A   Clear
2:30 PM 78.8 °F 42.8 °F 28% 30.12 in - North 6.9 mph - N/A   Clear
3:00 PM 78.8 °F 42.8 °F 28% 30.12 in - NW 6.9 mph - N/A   Clear
4:00 PM 78 °F 51 °F 28% 30.02 in 19 mi NW 9.2 mph - -  
4:00 PM 77.0 °F 50.0 °F 39% 30.09 in - NW 9.2 mph - N/A   Clear
5:00 PM 77.0 °F 50.0 °F 39% 30.06 in - NW 10.4 mph - N/A   Clear
6:00 PM 77.0 °F 51.8 °F 41% 30.09 in - NW 9.2 mph - N/A   Clear
7:00 PM 75 °F 52 °F 34% 30.01 in 25 mi NW 6.9 mph - -  
7:00 PM 75.2 °F 53.6 °F 47% 30.06 in - NW 6.9 mph - N/A   Clear
8:00 PM 69.8 °F 53.6 °F 56% 30.09 in - WNW 5.8 mph - N/A   Clear
10:00 PM 62 °F 54 °F 68% 30.05 in 6 mi West 4.6 mph - -  
10:00 PM 62.6 °F 53.6 °F 72% 30.09 in - WSW 4.6 mph - N/A   Clear